Everett, WA
on Wednesday, November 21, 2012

Wednesday
Previous Day Next Day
Daily Summary
 ActualAverageRecord
Temperature
Mean Temperature °F °F  
Max Temperature 46°F 49°F 64°F (1987)
Min Temperature 41°F 36°F 18°F (1977)
Degree Days
Heating Degree Days 22    
Moisture
Dew Point 38°F   
Average Humidity 81    
Maximum Humidity 87    
Minimum Humidity 71    
Precipitation
Precipitation 0.46 in in in ()
Wind
Wind Speed 13 mph   
Max Wind Speed 26 mph   
Max Gust Speed 33 mph   
Visibility 9 miles   
Events Rain   
Averages and records for this station are not official NWS values.
Key: T is trace of precipitation, MM is missing value
Source: NWS Daily Summary
Seasonal Weather Averages
Time(PST)TemperatureDew PointHumidity Pressure Visibility Wind DirectionWind SpeedGust SpeedPrecipitationEvents Conditions
12:53 AM 45.0°F 37.9°F 76% 29.54 in 10.0 miles ESE 6.9 mph - N/A   Overcast
1:53 AM 45.0°F 39.0°F 80% 29.53 in 9.0 miles Calm Calm - 0.02 in Rain Light Rain
2:32 AM 46.4°F 37.4°F 71% 29.54 in 5.0 miles South 6.9 mph 18.4 mph 0.06 in Rain Light Rain
2:53 AM 45.0°F 39.0°F 80% 29.54 in 6.0 miles SSE 10.4 mph - 0.10 in Rain Light Rain
3:45 AM 44.6°F 39.2°F 81% 29.53 in 10.0 miles SSE 13.8 mph 24.2 mph 0.02 in Rain Light Rain
3:53 AM 45.0°F 39.0°F 80% 29.54 in 10.0 miles SSE 16.1 mph 21.9 mph 0.02 in Rain Light Rain
4:37 AM 44.6°F 39.2°F 81% 29.54 in 7.0 miles South 12.7 mph - 0.01 in Rain Light Rain
4:53 AM 45.0°F 41.0°F 86% 29.56 in 6.0 miles South 17.3 mph 25.3 mph 0.02 in Rain Light Rain
5:25 AM 42.8°F 39.2°F 87% 29.58 in 3.0 miles SSW 19.6 mph 31.1 mph N/A Rain Rain
5:53 AM 43.0°F 39.0°F 86% 29.61 in 4.0 miles SSW 20.7 mph 28.8 mph 0.25 in Rain Rain
6:17 AM 42.8°F 37.4°F 81% 29.59 in 10.0 miles South 19.6 mph - 0.04 in Rain Light Rain
6:53 AM 43.0°F 39.0°F 86% 29.65 in 10.0 miles SSW 23.0 mph 31.1 mph 0.05 in   Overcast
7:53 AM 43.0°F 39.0°F 86% 29.71 in 10.0 miles SSW 18.4 mph 24.2 mph N/A   Overcast
8:53 AM 44.1°F 39.0°F 82% 29.77 in 10.0 miles SSW 12.7 mph - N/A   Mostly Cloudy
9:36 AM 44.6°F 39.2°F 81% 29.77 in 10.0 miles South 21.9 mph 31.1 mph N/A   Overcast
9:48 AM 44.6°F 39.2°F 81% 29.77 in 10.0 miles South 23.0 mph 32.2 mph N/A   Scattered Clouds
9:53 AM 45.0°F 39.0°F 80% 29.79 in 10.0 miles South 26.5 mph 32.2 mph N/A   Scattered Clouds
10:53 AM 44.1°F 37.9°F 79% 29.82 in 10.0 miles South 21.9 mph 29.9 mph N/A   Mostly Cloudy
11:53 AM 44.1°F 37.9°F 79% 29.84 in 10.0 miles South 18.4 mph 27.6 mph N/A   Overcast
12:53 PM 45.0°F 37.9°F 76% 29.86 in 10.0 miles SSW 24.2 mph 32.2 mph N/A   Mostly Cloudy
1:53 PM 45.0°F 37.0°F 74% 29.88 in 10.0 miles South 26.5 mph 33.4 mph N/A   Mostly Cloudy
2:06 PM 44.6°F 37.4°F 76% 29.89 in 10.0 miles South 20.7 mph 28.8 mph N/A   Mostly Cloudy
2:18 PM 44.6°F 37.4°F 76% 29.89 in 10.0 miles SSW 15.0 mph 26.5 mph N/A   Mostly Cloudy
2:53 PM 45.0°F 37.0°F 74% 29.93 in 10.0 miles SSW 16.1 mph 26.5 mph N/A   Mostly Cloudy
3:00 PM 44.6°F 37.4°F 76% 29.93 in 10.0 miles SSW 17.3 mph - N/A   Mostly Cloudy
3:32 PM 44.6°F 37.4°F 76% 29.96 in 10.0 miles SW 16.1 mph 26.5 mph N/A   Mostly Cloudy
3:53 PM 45.0°F 37.9°F 76% 30.00 in 10.0 miles SW 16.1 mph 20.7 mph 0.00 in Rain Light Rain
4:49 PM 44.6°F 39.2°F 81% 30.04 in 10.0 miles SSW 10.4 mph - 0.00 in   Overcast
4:53 PM 44.1°F 39.0°F 82% 30.05 in 10.0 miles SW 10.4 mph - 0.00 in   Overcast
5:53 PM 42.1°F 37.9°F 85% 30.09 in 10.0 miles South 8.1 mph - N/A   Overcast
5:56 PM 42.8°F 37.4°F 81% 30.08 in 10.0 miles South 8.1 mph - N/A   Overcast
6:53 PM 42.1°F 37.9°F 85% 30.13 in 10.0 miles SSE 8.1 mph - N/A   Partly Cloudy
7:53 PM 42.1°F 37.9°F 85% 30.17 in 10.0 miles South 6.9 mph - N/A   Mostly Cloudy
8:53 PM 41.0°F 37.0°F 86% 30.21 in 10.0 miles South 6.9 mph - N/A   Mostly Cloudy
9:00 PM 41.0°F 37.4°F 87% 30.21 in 10.0 miles South 6.9 mph - N/A   Mostly Cloudy
9:53 PM 42.1°F 37.9°F 85% 30.25 in 10.0 miles South 6.9 mph - N/A   Mostly Cloudy
10:53 PM 43.0°F 37.9°F 82% 30.27 in 10.0 miles South 11.5 mph - N/A   Overcast
11:53 PM 42.1°F 37.0°F 82% 30.30 in 10.0 miles South 4.6 mph - N/A   Overcast
Moon Phase
Nov. 21 Nov. 28 Dec. 06 Dec. 13 Dec. 20
Sunrise:07:24 AM (PST) Moon Rise:01:08 PM (PST)11/21
Sunset:04:25 PM (PST) Moon Set:12:22 AM (PST)11/21

Copyright © 2014 The Weather Underground, Inc.